Flag for Bermuda Weather past 2 weeks in Hamilton, Bermuda

66 °F

Scattered showers. Partly cloudy.

Feels Like: 66 °F
Forecast: 68 / 72 °F
Wind: 29 mph from Northeast

Location: Bermuda

Current Time: Nov 25, 2015 at 8:27:21 PM

Latest Report: Nov 25, 2015 at 6:55 PM

Visibility: N/A

Pressure: 30.42 "Hg

Humidity: 64%

Dew point: 54 °F

Location of HamiltonLocation

Historic Weather in Hamilton — Graph


Hamilton temperature yesterday

Maximum temperature yesterday: 72 °F (at 9:55 AM)
Minimum temperature yesterday: 68 °F (at 1:55 PM)
Average temperature yesterday: 69 °F

Past Weeks' High & Low Weather Summary

High79 °F (Nov 11, 8:55 AM)94% (Nov 11, 4:55 PM)30.42 "Hg (Nov 11, 4:55 PM)
Low64 °F (Nov 18, 2:55 AM)40% (Nov 18, 5:55 AM)29.86 "Hg (Nov 12, 1:55 AM)
Average71 °F66%30.09 "Hg
* Reported Nov 10 6:55 PM — Nov 25 6:55 PM, Hamilton, Weather by CustomWeather, © 2015

Note: Actual official high and low records may vary slightly from our data, if they occured in-between our weather recording intervals... More about our weather records


Hamilton weather history for previous 24 hours

Time TempWeatherWind HumidityBarometerVisibility
6:55 PM
Wed, Nov 25
66 °FScattered showers. Partly cloudy.29 mph64%30.42 "HgN/A
5:55 PM66 °FPassing clouds.26 mph60%30.39 "HgN/A
4:55 PM66 °FScattered showers. Broken clouds.30 mph64%30.39 "HgN/A
3:55 PM68 °FSprinkles. Cloudy.26 mph60%30.36 "HgN/A
2:55 PM68 °FScattered showers. More clouds than sun.25 mph60%30.36 "HgN/A
1:55 PM68 °FMore clouds than sun.23 mph64%30.36 "HgN/A
12:55 PM68 °FBroken clouds.25 mph60%30.36 "HgN/A
11:55 AM68 °FScattered showers. Broken clouds.25 mph60%30.36 "HgN/A
10:55 AM68 °FScattered showers. Broken clouds.24 mph64%30.36 "HgN/A
9:55 AM68 °FBroken clouds.24 mph60%30.36 "HgN/A
8:55 AM66 °FScattered showers. Broken clouds.23 mph60%30.33 "HgN/A
7:55 AM66 °FSprinkles. Cloudy.24 mph60%30.30 "HgN/A
6:55 AM66 °FScattered showers. Passing clouds.24 mph60%30.30 "HgN/A
5:55 AM66 °FScattered showers. Passing clouds.29 mph60%30.27 "HgN/A
4:55 AM66 °FScattered showers. Partly cloudy.29 mph64%30.24 "HgN/A
3:55 AM66 °FSprinkles. Mostly cloudy.29 mph64%30.24 "HgN/A
2:55 AM66 °FScattered showers. Passing clouds.28 mph64%30.21 "HgN/A
1:55 AM68 °FScattered showers. Overcast.24 mph60%30.21 "HgN/A
12:55 AM66 °FPassing clouds.23 mph64%30.21 "HgN/A
11:55 PM
Tue, Nov 24
68 °FOvercast.22 mph60%30.21 "HgN/A
10:55 PM68 °FOvercast.24 mph64%30.21 "HgN/A
9:55 PM68 °FScattered showers. Overcast.22 mph69%30.18 "HgN/A
8:55 PM68 °FOvercast.21 mph64%30.18 "HgN/A
Weather by CustomWeather, © 2015

See weather overviewHow to use our weather pages